TimeCST,TemperatureF,Dew PointF,Humidity,Sea Level PressureIn,VisibilityMPH,Wind Direction,Wind SpeedMPH,Gust SpeedMPH,PrecipitationIn,Events,Conditions,WindDirDegrees,DateUTC
12:52 AM,46.0,43.0,89,29.81,10.0,South,13.8,-,N/A,,Partly Cloudy,190,2013-01-11 06:52:00
1:52 AM,45.0,43.0,93,29.82,10.0,South,8.1,-,N/A,,Scattered Clouds,180,2013-01-11 07:52:00
2:52 AM,46.0,43.0,89,29.80,10.0,South,11.5,-,N/A,,Mostly Cloudy,170,2013-01-11 08:52:00
3:52 AM,46.0,43.0,89,29.76,10.0,South,13.8,-,N/A,,Mostly Cloudy,180,2013-01-11 09:52:00
4:52 AM,46.0,42.1,86,29.75,10.0,South,10.4,-,N/A,,Mostly Cloudy,190,2013-01-11 10:52:00
5:52 AM,46.0,42.1,86,29.73,10.0,South,13.8,-,N/A,,Mostly Cloudy,190,2013-01-11 11:52:00
6:52 AM,46.9,42.1,83,29.74,10.0,South,12.7,-,N/A,,Mostly Cloudy,180,2013-01-11 12:52:00
7:52 AM,46.9,42.1,83,29.76,10.0,South,17.3,-,N/A,,Mostly Cloudy,190,2013-01-11 13:52:00
8:52 AM,48.0,42.1,80,29.78,10.0,South,16.1,-,N/A,,Mostly Cloudy,190,2013-01-11 14:52:00
9:52 AM,53.1,44.1,71,29.76,10.0,South,18.4,-,N/A,,Mostly Cloudy,180,2013-01-11 15:52:00
10:52 AM,57.0,44.1,62,29.76,10.0,SSW,24.2,31.1,N/A,,Mostly Cloudy,200,2013-01-11 16:52:00
11:52 AM,62.1,45.0,53,29.71,10.0,South,23.0,-,N/A,,Mostly Cloudy,190,2013-01-11 17:52:00
12:52 PM,64.0,44.1,48,29.68,10.0,SSW,25.3,32.2,N/A,,Mostly Cloudy,200,2013-01-11 18:52:00
1:52 PM,66.9,45.0,45,29.65,10.0,South,25.3,31.1,N/A,,Mostly Cloudy,190,2013-01-11 19:52:00
2:52 PM,68.0,45.0,43,29.65,10.0,SSW,23.0,29.9,N/A,,Mostly Cloudy,210,2013-01-11 20:52:00
3:52 PM,66.9,45.0,45,29.66,10.0,SSW,17.3,-,N/A,,Mostly Cloudy,200,2013-01-11 21:52:00
4:52 PM,68.0,46.0,45,29.66,10.0,SSW,15.0,-,N/A,,Mostly Cloudy,200,2013-01-11 22:52:00
5:52 PM,61.0,46.0,58,29.68,10.0,SSE,10.4,-,N/A,,Mostly Cloudy,160,2013-01-11 23:52:00
6:52 PM,59.0,46.0,62,29.70,10.0,South,8.1,-,N/A,,Scattered Clouds,170,2013-01-12 00:52:00
7:52 PM,57.9,48.0,70,29.71,10.0,South,6.9,-,N/A,,Mostly Cloudy,170,2013-01-12 01:52:00
8:52 PM,59.0,48.9,69,29.72,10.0,South,10.4,-,N/A,,Mostly Cloudy,180,2013-01-12 02:52:00
9:52 PM,57.9,50.0,75,29.75,10.0,SSW,6.9,-,N/A,,Mostly Cloudy,200,2013-01-12 03:52:00
10:52 PM,57.9,50.0,75,29.79,10.0,West,8.1,-,N/A,,Mostly Cloudy,280,2013-01-12 04:52:00
11:52 PM,55.9,34.0,44,29.81,10.0,NNW,11.5,-,N/A,,Overcast,330,2013-01-12 05:52:00